User: anonymous   Login
Location: Observatorio Las Palmas
(29.0667°N, 110.9333°W)
Time: 21:07:57
(UTC-07:00)
Language:

Skynet4D Del rocket - Orbit

View from above orbital plane
View from above orbital plane
View from above satellite
View from above satellite

Ground track
Ground track

The orbit data is extracted from the following two-line orbital elements,

1 25135U 98002B   14331.72027362  .00000145  00000-0  29587-4 0  2534
2 25135 026.8852 054.6816 0356753 005.3187 162.0747 13.62277041841263
Epoch (UTC): 27 November 2014 17:17:11
Eccentricity: 0.0356753
inclination: 26.8852°
perigee height: 763 km
apogee height: 1291 km
right ascension of ascending node: 54.6816°
argument of perigee: 5.3187°
revolutions per day: 13.62277041
mean anomaly at epoch: 162.0747°
orbit number at epoch: 84126

The dashed part of the orbit path shows where the satellite is in the earth's shadow,  

DLR